Weather observations for the past three days for
Marion Municipal Airport
Metric (Imperial)
Date Time (edt) Wind (kph) Vis. (km) Weather Sky Cond. Temperature (ºC) Relative Humidity Wind Chill (°C) Heat Index (°C) Pressure Precipitation (cm)
Air Dwpt 6 hour altimeter (cm) sea level (mb) 1 hr 3 hr 6 hr
Max. Min.
03 17:15 SE 20 11.27 Mostly Cloudy BKN100 10.4 6.4 76% 75.97 0.0
03 16:55 SE 17 16.09 Partly Cloudy SCT090 9.9 6.8 81% 8 76 0.0 0.23
03 16:35 SE 13 16.09 Mostly Cloudy SCT065 BKN075 BKN090 8.9 6.2 83% 7 76.05 0.0
03 16:15 SE 9 16.09 Overcast SCT038 BKN065 OVC090 8.3 5.6 83% 7 76.1 0.0
03 15:55 SE 7 4.83 Light Rain SCT035 OVC041 8.4 5.1 80% 8 76.15 0.0 0.23
03 15:35 SW 19 G 30 4.83 Rain SCT035 BKN041 OVC047 9.1 4.6 74% 7 76.23 0.0 0.1
03 15:15 W 43 G 56 11.27 Overcast and Windy SCT040 BKN050 OVC070 11.1 2.7 57% 76.23 0.0
03 14:55 W 46 G 61 11.27 Mostly Cloudy and Windy BKN055 BKN070 13.5 0.6 42% 76.17 0.0
03 14:35 SW 35 G 46 16.09 Partly Cloudy and Breezy SCT060 SCT065 14.4 0 38% 76.15 0.0
03 14:15 SW 37 G 44 16.09 Partly Cloudy and Breezy SCT060 14.8 -0.2 36% 76.17 0.0
03 13:55 W 31 G 44 16.09 Partly Cloudy SCT060 15.1 -0.7 27 0.6 34% 76.2 0.0
03 13:35 SW 37 G 48 16.09 Fair and Breezy CLR 15.6 -1 32% 76.23 0.0
03 13:15 SW 31 G 39 16.09 Partly Cloudy SCT060 15.2 -1.5 32% 76.23 0.0
03 12:50 SW 31 G 44 16.09 Fair CLR 15.3 -1.9 31% 76.25 0.0
03 12:35 SW 35 G 43 16.09 Fair and Breezy CLR 14.9 -2 31% 76.25 0.0
03 12:15 SW 24 G 43 16.09 Fair CLR 14.5 -2.3 32% 76.25 0.0
03 11:55 W 31 G 41 11.27 Fair CLR 13.8 -1.9 34% 76.3 0.0
03 11:35 SW 28 G 44 16.09 Fair CLR 13.4 -1.5 36% 76.3 0.0
03 11:15 SW 30 11.27 Fair CLR 13.1 -1.2 37% 76.33 0.0
03 10:55 SW 31 G 41 16.09 Fair CLR 12.4 -1 40% 76.33 0.0
03 10:35 SW 31 G 39 16.09 Fair CLR 11.7 -1.5 40% 76.33 0.0
03 10:15 SW 30 G 41 16.09 Fair CLR 11.1 -1.6 42% 76.35 0.0
03 09:55 SW 31 G 39 11.27 Fair CLR 10.7 -1.1 44% 76.35 0.0
03 09:35 SW 30 8.05 Fair with Haze CLR 9.7 -0.9 48% 7 76.35 0.0
03 09:15 SW 22 G 30 16.09 Fair CLR 8.7 -0.4 53% 6 76.35 0.0
03 08:55 SW 20 11.27 Fair CLR 7.7 -0.6 56% 5 76.35 0.0
03 08:35 SW 19 16.09 Fair CLR 6.8 -0.8 59% 4 76.35 0.0
03 08:15 SW 20 16.09 Fair CLR 6.1 -0.9 61% 3 76.35 0.0
03 07:55 SW 15 16.09 Fair CLR 5.2 -1.1 27 0.6 64% 2 76.35 0.0
03 07:35 SW 17 11.27 Fair CLR 4.1 -1.4 68% 1 76.33 0.0
03 07:15 SW 15 16.09 Fair CLR 3.2 -1.7 71% -0 76.33 0.0
03 06:55 SW 13 16.09 Fair CLR 2.7 -2 72% -0 76.33 0.0
03 06:35 SW 13 16.09 Fair CLR 2.3 -2.2 72% -1 76.3 0.0
03 06:15 SW 11 16.09 Fair CLR 2 -2.2 74% -1 76.3 0.0
03 05:55 SW 11 16.09 Fair CLR 1.9 -2.2 75% -1 76.3 0.0
03 05:35 SW 11 16.09 Fair CLR 2 -2.2 74% -1 76.3 0.0
03 05:15 SW 11 16.09 Fair CLR 2 -2.3 73% -1 76.3 0.0
03 04:55 SW 11 16.09 Fair CLR 2.2 -2.3 72% -1 76.3 0.0
03 04:35 SW 11 16.09 Fair CLR 2 -2.3 73% -1 76.33 0.0
03 04:15 SW 9 16.09 Fair CLR 1.9 -2.4 73% -1 76.33 0.0
03 03:55 SW 7 16.09 Fair CLR 1.8 -2.5 73% -0 76.33 0.0
03 03:35 S 7 16.09 Fair CLR 2.2 -2.5 71% 0 76.3 0.0
03 03:15 SW 7 16.09 Fair CLR 2 -2.4 73% 0 76.33 0.0
03 02:55 S 7 16.09 Fair CLR 2 -2.5 72% 0 76.33 0.0
03 02:35 S 9 16.09 Fair CLR 2 -2.2 74% -0 76.35 0.0
03 02:15 SW 9 16.09 Fair CLR 1.9 -2.2 75% -1 76.35 0.0
03 01:55 SW 9 16.09 Fair CLR 2.1 -2.2 27 0.6 74% -0 76.38 0.0
03 01:35 S 7 16.09 Fair CLR 2 -1.9 76% 0 76.38 0.0
03 01:15 S 6 16.09 Fair CLR 2.1 -1.6 77% 76.38 0.0
03 00:55 S 6 16.09 Fair CLR 2.1 -1.2 79% 76.38 0.0
03 00:35 Calm 16.09 Fair CLR 1.9 -0.9 82% 76.38 0.0
03 00:15 Calm 16.09 Fair CLR 1.7 -0.8 84% 76.38 0.0
02 23:55 Calm 16.09 Fair CLR 2.4 -0.7 80% 76.38 0.0
02 23:35 Calm 16.09 Fair CLR 3 -1.1 75% 76.38 0.0
02 23:15 S 6 16.09 Fair CLR 2.8 -1.2 75% 76.4 0.0
02 22:55 Calm 16.09 Fair CLR 3.2 -1.4 72% 76.4 0.0
02 22:35 Calm 16.09 Fair CLR 4.1 -2 65% 76.38 0.0
02 22:15 Calm 16.09 Fair CLR 4.8 -2.7 59% 76.38 0.0
02 21:55 Calm 16.09 Fair CLR 6 -3.9 49% 76.38 0.0
02 21:35 Calm 16.09 Fair CLR 6.6 -4.7 45% 76.38 0.0
02 21:15 Calm 16.09 Fair CLR 7.8 -6.5 36% 76.38 0.0
02 20:55 Calm 16.09 Fair CLR 8.4 -7.2 33% 76.38 0.0
02 20:35 NW 7 16.09 Fair CLR 8.8 -7.1 32% 8 76.38 0.0
02 19:55 NW 13 11.27 Fair CLR 9.9 -8 27 0.6 28% 8 76.35 0.0
02 19:35 NW 17 G 30 16.09 Partly Cloudy SCT070 10.2 -7.3 29% 76.33 0.0
02 19:15 NW 22 16.09 Fair CLR 10.2 -7 29% 76.35 0.0
02 18:55 NW 7 16.09 Partly Cloudy SCT070 10.4 -6.7 30% 76.35 0.0
02 18:35 NW 11 16.09 Partly Cloudy SCT070 10.3 -7.4 28% 76.35 0.0
02 18:15 NW 9 16.09 Partly Cloudy SCT075 10.2 -7.2 29% 76.35 0.0
02 17:55 NW 9 G 30 16.09 Mostly Cloudy SCT060 BKN075 10.8 -6.8 29% 76.35 0.0
02 17:35 NW 15 16.09 Overcast BKN060 OVC070 10.1 -6 32% 76.35 0.0
02 17:15 N 11 16.09 Mostly Cloudy BKN060 9.5 -5.3 35% 8 76.35 0.0
02 16:55 N 11 16.09 Mostly Cloudy BKN060 BKN070 9.3 -5.3 36% 8 76.35 0.0
02 16:35 N 15 16.09 Overcast OVC060 8.9 -5.3 37% 7 76.38 0.0
02 16:15 NW 7 8.05 Overcast with Haze BKN060 OVC070 9.1 -5.3 36% 8 76.38 0.0
02 15:55 N 15 16.09 Overcast SCT055 OVC065 9.7 -5.5 34% 8 76.4 0.0
02 15:35 N 11 G 28 16.09 Mostly Cloudy SCT055 BKN065 9.1 -5.4 36% 8 76.4 0.0
02 15:15 N 11 16.09 Mostly Cloudy SCT055 BKN065 9.3 -4.8 37% 8 76.43 0.0
02 14:55 NW 11 16.09 Overcast SCT055 OVC065 8.6 -5.1 38% 7 76.43 0.0
02 14:35 N 20 16.09 Mostly Cloudy BKN055 BKN065 8.8 -5.1 37% 6 76.43 0.0
02 14:15 N 20 G 28 16.09 Mostly Cloudy SCT050 BKN060 8.7 -4.2 40% 6 76.45 0.0
02 13:55 N 20 G 26 16.09 Mostly Cloudy SCT049 BKN060 8.1 -4.6 27 0.6 41% 5 76.45 0.0
02 13:35 NW 13 16.09 Mostly Cloudy SCT049 BKN060 7.8 -4.7 41% 6 76.48 0.0
02 13:15 N 11 16.09 Mostly Cloudy SCT045 BKN060 7.7 -4.4 42% 6 76.48 0.0
02 12:55 NW 17 G 26 16.09 Mostly Cloudy SCT045 BKN060 7.9 -4 43% 5 76.48 0.0
02 12:35 N 13 16.09 Overcast SCT044 OVC050 7.2 -4.3 44% 5 76.5 0.0
02 12:15 NW 13 16.09 Overcast SCT046 OVC050 6.8 -4.5 45% 5 76.5 0.0
02 11:55 N 9 16.09 Overcast BKN041 OVC050 6.9 -3.8 47% 5 76.5 0.0
02 11:35 NW 13 16.09 Mostly Cloudy BKN039 7.2 -2.6 50% 5 76.5 0.0
02 11:15 N 9 G 15 16.09 Fair CLR 6.6 -3.5 49% 5 76.5 0.0
02 10:55 N 11 16.09 Fair CLR 6.5 -3.8 48% 5 76.5 0.0
02 10:35 N 15 16.09 Fair CLR 6.2 -3.6 50% 4 76.5 0.0
02 10:15 NE 15 16.09 Fair CLR 5.9 -4 49% 3 76.48 0.0
02 09:55 N 11 16.09 Fair CLR 5.3 -3.9 52% 3 76.48 0.0
02 09:35 N 11 16.09 Fair CLR 4.8 -3.4 56% 3 76.48 0.0
02 09:15 N 13 11.27 Fair CLR 4.2 -2.5 62% 1 76.48 0.0
02 08:55 N 9 16.09 Fair CLR 3.5 -2.4 66% 1 76.48 0.0
02 08:35 N 13 16.09 Fair CLR 3.2 -2.6 66% 0 76.45 0.0
02 08:15 N 7 11.27 Fair CLR 2.5 -2.6 69% 1 76.45 0.0
02 07:55 N 6 16.09 Fair CLR 1.8 -2.5 27 0.6 73% 76.43 0.0
02 07:35 Calm 16.09 Fair CLR 1 -3.1 74% 76.43 0.0
02 07:15 Calm 16.09 Fair CLR 0.9 -3.9 71% 76.43 0.0
02 06:55 N 6 16.09 Fair CLR 0.8 -4.1 70% 76.43 0.0
02 06:35 Calm 16.09 Fair CLR 0.9 -4.6 67% 76.43 0.0
02 06:15 Calm 16.09 Fair CLR 0.7 -4.5 69% 76.4 0.0
02 05:55 Calm 16.09 Fair CLR 0.8 -4.4 69% 76.4 0.0
02 05:35 Calm 16.09 Fair CLR 1.2 -4.1 68% 76.4 0.0
02 05:15 Calm 16.09 Fair CLR 1.7 -4.2 65% 76.4 0.0
02 04:55 Calm 16.09 Fair CLR 2 -4.8 61% 76.4 0.0
02 04:35 N 6 16.09 Fair CLR 2.4 -5 59% 76.4 0.0
02 04:15 N 9 16.09 Partly Cloudy SCT075 3.1 -5.6 53% 1 76.38 0.0
02 03:55 N 11 16.09 Overcast OVC075 3.6 -3.6 60% 1 76.4 0.0
02 03:35 N 9 16.09 Overcast OVC075 4 -2.2 64% 2 76.4 0.0
02 03:15 N 15 16.09 Overcast OVC075 4.2 -1.9 65% 1 76.38 0.0
02 02:55 N 7 16.09 Overcast OVC075 4.3 -1.2 68% 3 76.4 0.0
02 02:35 Calm 16.09 Overcast SCT055 SCT065 OVC075 4.3 -1.1 68% 76.4 0.0
02 02:15 Calm 16.09 Overcast SCT055 OVC075 4.4 -1.6 65% 76.4 0.0
02 01:55 NW 6 16.09 Overcast OVC075 4.6 -2.1 27 2.2 62% 76.4 0.0
02 01:35 N 6 16.09 Overcast SCT060 OVC075 4.6 -2.1 62% 76.4 0.0
02 01:15 N 7 16.09 Overcast BKN060 OVC075 4.6 -2.3 61% 3 76.4 0.0
02 00:55 N 9 16.09 Mostly Cloudy SCT060 BKN075 4.7 -2.2 61% 3 76.4 0.0
02 00:35 N 11 16.09 Mostly Cloudy BKN075 4.9 -1.9 62% 3 76.4 0.0
02 00:15 N 7 16.09 Mostly Cloudy BKN075 4.8 -1 66% 3 76.43 0.0
01 23:55 N 6 16.09 Overcast SCT060 OVC075 5.4 -1.9 60% 76.43 0.0
01 23:35 Calm 16.09 Overcast SCT060 OVC075 5.5 -2.2 58% 76.43 0.0
01 23:15 N 7 16.09 Mostly Cloudy BKN075 5 -2.1 60% 4 76.43 0.0
01 22:55 N 7 16.09 Partly Cloudy SCT075 4.7 -1 67% 3 76.4 0.0
01 22:35 N 7 16.09 Partly Cloudy SCT075 5.5 -1.3 62% 4 76.4 0.0
01 22:15 N 9 16.09 Mostly Cloudy SCT075 BKN080 5.3 -0.7 66% 3 76.38 0.0
01 21:55 N 7 16.09 Mostly Cloudy BKN075 5.9 -1.4 60% 5 76.35 0.0
01 21:15 N 7 16.09 Fair CLR 6.6 -1.5 57% 5 76.3 0.0
01 20:55 N 15 16.09 Fair CLR 7.3 -2 52% 5 76.25 0.0
01 20:35 N 11 16.09 Fair CLR 7.8 -2.2 50% 6 76.25 0.0
01 20:15 N 11 16.09 Fair CLR 8.3 -2.3 48% 7 76.25 0.0
01 19:55 N 15 G 26 16.09 Partly Cloudy SCT050 8.8 -2.6 27 2.2 45% 7 76.25 0.0
01 19:35 N 19 G 30 16.09 Partly Cloudy SCT050 SCT095 9 -2.7 44% 7 76.25 0.0
01 19:15 NW 19 G 26 16.09 Partly Cloudy SCT050 9.5 -2 45% 7 76.23 0.0
01 18:55 NW 17 G 28 16.09 Partly Cloudy SCT043 SCT050 SCT100 9.8 -1 47% 8 76.23 0.0
01 18:35 NW 22 16.09 Mostly Cloudy SCT043 SCT050 BKN090 9.3 -0.2 52% 7 76.23 0.0
01 18:15 NW 17 16.09 Mostly Cloudy BKN090 8.9 0.2 55% 7 76.23 0.0
01 17:55 NW 17 16.09 Mostly Cloudy SCT050 BKN075 9 0.1 54% 7 76.23 0.0
01 17:35 NW 17 16.09 Overcast SCT050 BKN065 OVC080 8.6 0.3 56% 6 76.25 0.0
01 17:15 N 19 G 33 16.09 Overcast SCT048 BKN060 OVC080 9 -0.2 53% 7 76.25 0.0
01 16:55 W 20 G 30 16.09 Overcast SCT043 SCT065 OVC080 10.2 -0.5 48% 76.2 0.0
01 16:35 NW 15 16.09 Overcast SCT040 OVC080 10.3 -0.1 49% 76.2 0.0
01 16:15 W 20 G 28 16.09 Overcast SCT040 BKN055 OVC080 9.7 0.2 52% 7 76.23 0.0
01 15:55 NW 17 16.09 Overcast SCT038 BKN055 OVC070 9.5 0.2 53% 7 76.23 0.0
01 15:35 W 17 16.09 Overcast BKN038 BKN060 OVC070 9.5 0 52% 7 76.23 0.0
01 15:15 W 15 16.09 Overcast BKN040 BKN055 OVC070 9.4 0.3 53% 7 76.2 0.0
01 14:55 NW 17 16.09 Overcast SCT038 BKN046 OVC060 9.6 0.4 53% 7 76.2 0.0
01 14:35 W 17 16.09 Mostly Cloudy SCT037 BKN045 BKN070 9.8 0.5 53% 8 76.2 0.0
01 14:15 NW 13 G 26 16.09 Mostly Cloudy SCT037 SCT042 BKN060 9.2 0.5 55% 7 76.2 0.0
01 13:55 N 15 G 26 16.09 Mostly Cloudy SCT037 BKN046 BKN060 9.3 0.6 27 2.2 55% 7 76.2 0.0
01 13:35 N 15 16.09 Mostly Cloudy SCT035 BKN041 9 0.7 56% 7 76.2 0.0
01 13:15 N 15 16.09 Mostly Cloudy SCT029 BKN036 8.7 1.2 60% 7 76.2 0.0
01 12:55 N 17 G 28 16.09 Partly Cloudy SCT027 SCT034 8.4 1.4 62% 6 76.2 0.0
01 12:35 N 19 G 26 16.09 Mostly Cloudy BKN025 BKN031 7.6 1.5 66% 5 76.2 0.0
01 12:15 N 17 G 28 16.09 Mostly Cloudy BKN022 BKN027 BKN034 7 1.9 70% 4 76.17 0.0
01 11:55 N 20 G 28 16.09 Overcast BKN020 OVC027 7 2.2 72% 4 76.17 0.0
01 11:35 N 26 G 31 16.09 Mostly Cloudy BKN018 BKN023 6.4 2.5 76% 3 76.15 0.0
01 11:15 N 22 16.09 Overcast OVC016 6 2.5 79% 2 76.12 0.0
01 10:55 N 24 16.09 Overcast OVC012 5.5 2.6 82% 2 76.12 0.0
01 10:35 N 20 G 28 16.09 Overcast OVC012 5.1 2.5 83% 2 76.1 0.0
01 10:15 N 22 16.09 Overcast OVC010 4.5 2.1 85% 1 76.12 0.0
01 09:55 N 19 16.09 Overcast OVC010 4.5 2.3 86% 1 76.07 0.0
01 09:35 N 24 16.09 Overcast OVC008 4.7 2.6 86% 1 76.05 0.0
01 09:15 N 19 16.09 Overcast OVC008 4.7 2.8 88% 1 76.05 0.0
01 08:55 N 24 G 31 16.09 Overcast OVC006 4.5 2.9 89% 0 76 0.0
01 08:35 N 28 G 33 16.09 Overcast OVC006 5 3.5 90% 1 75.97 0.0
01 08:15 N 24 G 35 11.27 Overcast BKN006 BKN017 OVC055 5.7 4.2 90% 2 75.95 0.0
01 07:55 N 19 8.05 Light Rain SCT007 BKN023 OVC055 7 5.3 27 2.2 89% 4 75.9 0.0 0.03 0.2
01 07:35 SW 13 11.27 Overcast OVC013 8.3 6.7 90% 6 75.87 0.0
01 07:15 SW 11 11.27 Light Rain OVC017 8.2 6.5 89% 7 75.87 0.0
01 06:55 SW 7 16.09 Overcast BKN020 OVC031 8 6.4 90% 7 75.87 0.0 0.03
01 06:35 S 6 16.09 Overcast BKN034 OVC040 8 6.3 89% 75.87 0.0 0.03
01 06:15 Calm 11.27 Overcast SCT029 BKN036 OVC041 8 6.6 91% 75.9 0.0
01 05:55 Calm 11.27 Overcast BKN030 OVC034 8 6.6 91% 75.9 0.0 0.05
01 05:35 Calm 11.27 Light Rain BKN028 OVC036 8 6.5 90% 75.92 0.0 0.05
01 05:15 SE 6 11.27 Overcast BKN037 OVC044 8.1 6.5 90% 75.92 0.0 0.03
01 04:55 SE 6 11.27 Light Rain BKN045 OVC060 8.1 6.6 90% 75.95 0.0 0.05 0.1
01 04:35 Calm 16.09 Overcast SCT037 SCT043 OVC060 8.2 6.5 89% 75.95 0.0 0.05
01 04:15 Calm 11.27 Light Rain SCT039 OVC045 8.2 6.4 89% 75.95 0.0 0.03
01 03:55 Calm 16.09 Light Rain OVC045 8.2 6.5 89% 75.95 0.0 0.03
01 03:35 Calm 16.09 Overcast OVC050 8.2 6.3 88% 75.97 0.0 0.03
01 03:15 Calm 16.09 Light Rain OVC050 8.3 6.1 86% 75.97 0.0 0.03
01 02:55 SE 6 11.27 Light Rain OVC050 8.5 6.1 85% 76 0.0 0.03
01 02:35 Calm 16.09 Light Rain OVC050 8.6 6.1 84% 76.02 0.0 0.03
01 02:15 E 6 11.27 Overcast OVC050 8.8 6.5 86% 76.02 0.0 0.03
01 01:55 Calm 16.09 Light Rain OVC050 9.3 5.3 27 2.2 76% 76.05 0.0
01 01:35 Calm 16.09 Overcast BKN045 OVC050 9.5 5.1 74% 76.07 0.0
01 01:15 NW 6 16.09 Light Rain OVC050 9.8 5 72% 76.07 0.0
01 00:55 NW 7 16.09 Overcast OVC055 10 5 71% 9 76.07 0.0
01 00:35 NW 7 11.27 Overcast OVC055 10 5.6 74% 9 76.07 0.0
01 00:15 Calm 16.09 Overcast BKN055 OVC070 10.3 4.9 69% 76.07 0.0
30 23:55 NW 6 16.09 Overcast OVC065 10.4 4.7 68% 76.1 0.0
30 23:35 W 13 16.09 Overcast SCT055 BKN065 OVC080 10.7 4.4 65% 76.1 0.0
30 23:15 W 15 16.09 Overcast BKN055 BKN065 OVC080 11.1 4.2 63% 76.12 0.0
30 22:55 SW 11 16.09 Overcast BKN055 OVC065 10.8 5.1 68% 76.12 0.0
30 22:35 SW 7 16.09 Overcast OVC055 10.8 5.2 69% 76.12 0.0
30 22:15 SW 7 16.09 Overcast OVC065 10.9 5.2 68% 76.12 0.0
30 21:55 SW 6 11.27 Overcast OVC065 11.2 4.4 63% 76.1 0.0
30 21:35 SW 7 11.27 Overcast BKN065 OVC075 11.2 4.5 64% 76.1 0.0
30 21:15 S 6 16.09 Overcast SCT065 OVC075 11.3 4.2 62% 76.07 0.0
30 20:55 SW 6 16.09 Overcast BKN065 BKN075 OVC110 11.5 3.8 59% 76.1 0.0
30 20:35 SW 6 16.09 Overcast SCT065 SCT085 OVC110 12 2.2 51% 76.07 0.0
30 20:15 W 7 16.09 Overcast SCT070 BKN090 OVC120 12.5 1 46% 76.07 0.0
30 19:55 W 7 16.09 Overcast SCT070 OVC100 12.7 0.9 27 2.2 45% 76.07 0.0
30 19:35 W 11 16.09 Mostly Cloudy SCT055 BKN110 12.8 0.9 44% 76.1 0.0
30 19:15 W 13 16.09 Partly Cloudy SCT055 SCT065 SCT110 13.2 0.2 41% 76.1 0.0
30 18:55 W 9 11.27 Partly Cloudy SCT060 SCT095 13.8 -0.4 38% 76.12 0.0
30 18:35 W 13 16.09 Partly Cloudy SCT050 SCT095 14.1 -0.1 38% 76.12 0.0
30 18:15 W 15 16.09 Partly Cloudy SCT055 SCT065 13.9 -0.2 38% 76.12 0.0
30 17:55 W 15 11.27 Mostly Cloudy SCT050 SCT075 BKN085 13.6 -0.1 39% 76.15 0.0
Date Time (edt) Wind (kph) Vis. (km) Weather Sky Cond. Air Dwpt Max. Min. Relative Humidity Wind Chill (°C) Heat Index (°C) altimeter (cm) sea level (mb) 1 hr 3 hr 6 hr
6 hour
Temperature (ºC) Pressure Precipitation (cm)